Change the Weather History Date:

Friday, February 17, 2012

  Actual Average (KNKT) Record (KNKT)
Temperature  
Mean Temperature 54 °F -  
Max Temperature 64 °F 56 °F 73 °F (2006)
Min Temperature 43 °F 35 °F 17 °F (2007)
Degree Days  
Heating Degree Days 10    
Growing Degree Days 4 (Base 50)    
Moisture  
Dew Point 47 °F    
Average Humidity 81    
Maximum Humidity 97    
Minimum Humidity 47    
Precipitation  
Precipitation 0.00 in - - ()
Sea Level Pressure  
Sea Level Pressure 30.06 in    
Wind  
Wind Speed 7 mph (NNW)    
Max Wind Speed 12 mph    
Max Gust Speed 17 mph    
Visibility 8 miles    
Events      
Averages and records for this station are not official NWS values.
T = Trace of Precipitation, MM = Missing Value Source: NWS Daily Summary

Daily Weather History Graph

Daily Weather History Graph

Search for Another Location

Airport or City:

Trip Planner

Search our weather history database for the weather conditions in past years. The results will help you decide how hot, cold, wet, or windy it might be!

Date:

Astronomy

Feb. 17, 2012 Rise Set
Actual Time 6:52 AM EST 5:52 PM EST
Civil Twilight 6:26 AM EST 6:18 PM EST
Nautical Twilight 5:56 AM EST 6:47 PM EST
Astronomical Twilight 5:27 AM EST 7:17 PM EST
Moon 3:34 AM EST (2/17) 1:50 PM EST (2/17)
Length of Visible Light 11h 52m
Length of Day
11h 00m
Waning Crescent, 19% of the Moon is Illuminated
Feb 17
Waning Crescent
Feb 21
New
Feb 29
First Quarter
Mar 8
Full
Mar 14
Last Quarter

Hourly Weather History & Observations

Time (EST) Temp. Dew Point Humidity Pressure Visibility Wind Dir Wind Speed Gust Speed Precip Events Conditions
12:57 AM 54.0 °F 52.0 °F 93% 30.01 in - NW 8.1 mph - N/A   Overcast
1:57 AM 53.1 °F 52.0 °F 96% 30.00 in - NW 6.9 mph - N/A   Overcast
2:21 AM - - N/A% - - NW 6.9 mph - N/A   Unknown
2:37 AM - - N/A% - - North - - N/A   Unknown
2:50 AM 51.8 °F 50.0 °F 94% 29.98 in - NW 9.2 mph - N/A   Overcast
2:57 AM 52.0 °F 50.0 °F 93% 29.99 in - NW 9.2 mph - N/A   Overcast
3:57 AM 52.0 °F 50.0 °F 93% 30.02 in - NW 8.1 mph - N/A   Overcast
4:57 AM 51.1 °F 48.0 °F 89% 30.03 in - NNW 8.1 mph - N/A   Overcast
5:57 AM 50.0 °F 48.0 °F 93% 30.04 in - North 6.9 mph - N/A   Overcast
6:27 AM 50.0 °F 46.4 °F 87% 30.05 in - NNW 6.9 mph - N/A   Overcast
6:44 AM 50.0 °F 46.4 °F 87% 30.05 in - NW 6.9 mph - N/A   Overcast
6:57 AM 48.9 °F 46.9 °F 93% 30.06 in - NNW 8.1 mph - N/A   Overcast
7:57 AM 48.9 °F 46.0 °F 90% 30.09 in - NNW 6.9 mph - N/A   Overcast
8:57 AM 51.1 °F 46.9 °F 86% 30.10 in - North 6.9 mph - N/A   Mostly Cloudy
9:23 AM 53.6 °F 46.4 °F 77% 30.09 in - North 11.5 mph 17.3 mph N/A   Scattered Clouds
9:57 AM 54.0 °F 46.9 °F 77% 30.11 in 7.0 mi Variable 6.9 mph - N/A   Scattered Clouds
10:57 AM 59.0 °F 46.9 °F 64% 30.10 in - North 5.8 mph - N/A   Mostly Cloudy
11:57 AM 61.0 °F 46.0 °F 58% 30.09 in - Variable 5.8 mph - N/A   Clear
12:57 PM 62.1 °F 46.0 °F 56% 30.05 in - North 5.8 mph - N/A   Mostly Cloudy
1:57 PM 64.0 °F 45.0 °F 50% 30.03 in - North 5.8 mph - N/A   Scattered Clouds
2:57 PM 60.1 °F 46.0 °F 60% 30.04 in - South 4.6 mph - N/A   Overcast
3:57 PM 64.9 °F 44.1 °F 47% 30.04 in - NNW 4.6 mph - N/A   Mostly Cloudy
4:57 PM 57.9 °F 46.0 °F 65% 30.06 in - SE 6.9 mph - N/A   Clear
5:57 PM 55.0 °F 48.0 °F 77% 30.07 in - Calm Calm - N/A   Clear
6:57 PM 52.0 °F 46.9 °F 83% 30.09 in - Calm Calm - N/A   Clear
7:57 PM 50.0 °F 46.9 °F 89% 30.11 in - ESE 4.6 mph - N/A   Clear
8:57 PM 50.0 °F 46.9 °F 89% 30.12 in - East 4.6 mph - N/A   Clear
9:57 PM 50.0 °F 46.0 °F 86% 30.13 in - Calm Calm - N/A   Clear
10:57 PM 45.0 °F 44.1 °F 97% 30.12 in - Calm Calm - N/A   Clear
11:57 PM 43.0 °F 41.0 °F 93% 30.11 in 8.0 mi Calm Calm - N/A   Clear